Location: Dumpton Point
(51.3500°N, 1.4433°E)
Time: 05:57:47
(UTC+00:00)

Altair - Pass Details

Date: 09 October 2022
Orbit: 1501 x 1682 km, 47.2° (Epoch: 26 November)

Event Time Altitude Azimuth Distance (km) Brightness Sun altitude
Exits shadow 06:07:11 - 264° (W) 4,841 9.5 -0.9°
Rises 06:07:21 0° 264° (W) 4,790 9.4 -0.9°
Reaches altitude 10° 06:10:25 10° 262° (W) 3,829 9.0 -0.4°
Maximum altitude 06:20:09 71° 181° (S) 1,729 7.9 1.1°
Drops below altitude 10° 06:30:12 10° 101° (E) 3,938 12.3 2.6°
Sets 06:33:23 0° 99° (E) 4,932 13.1 3.1°
